sat.trackr.live / text

‹ back to catalog

QIANFAN-215

NORAD 69814 · 2026-153Q

PAYLOAD ACTIVE UNKNOWN

§ Identity

Operator
Country
PRC
Launch date
2026-07-04
Launch site
TAISC
Launch vehicle
Mass (kg)
RCS (m²)

External: N2YO · Heavens-Above · Gunter

§ Orbital elements

Epoch: 2026-09-19T22:15:27.639072Z

Period
101.75 min
Inclination
88.9976°
Eccentricity
0.0006815
Mean motion
14.15196393 rev/d
Perigee alt
836.7 km
Apogee alt
846.6 km
Semi-major
7,219.8 km
B*
1.3839e-5
RAAN
351.4071°
Arg perigee
358.6058°
Mean anomaly
1.5109°
Rev number
1,103

§ Raw data

QIANFAN-2151 69814U 26153Q   26262.92740323  .00000041  00000+0  13839-4 0  99952 69814  88.9976 351.4071 0006815 358.6058   1.5109 14.15196393 11036

JSON: /api/v1/satellites/69814 · /tle

For live sub-satellite position, see the globe view (requires WebGL).

§ Visibility from observer

Set your observer location to see the next 7 days of passes ≥ 10°. The values pass through the URL so the page stays shareable.

No JS? Fill the form by hand. The geolocation button needs JavaScript.